KG4QXF Weather Reports


time (UTC)temp
C
wind
direction
speed
KPH
gust
KPH
rain 1hr
cm
rain 24hr
cm
rain mn
cm
humidity
%
barometer
mb
20260503215218 18 76 0.0 4.8 0.00 0.00 0.00 58 1019.2
20260503214716 18 73 3.2 6.4 0.00 0.00 0.00 57 1019.3
20260503214212 18 20 4.8 11.3 0.00 0.00 0.00 57 1019.4
20260503213711 18 347 1.6 4.8 0.00 0.00 0.00 57 1019.4
20260503213208 18 98 1.6 14.5 0.00 0.00 0.00 55 1019.3
20260503212705 19 301 0.0 3.2 0.00 0.00 0.00 57 1019.3
20260503212202 19 270 1.6 4.8 0.00 0.00 0.00 56 1019.4
20260503211700 18 57 3.2 11.3 0.00 0.00 0.00 57 1019.2
20260503211155 19 38 1.6 4.8 0.00 0.00 0.00 57 1019.4
20260503210652 18 275 3.2 4.8 0.00 0.00 0.00 56 1019.5
20260503210148 19 61 9.7 16.1 0.00 0.00 0.00 54 1019.6
20260503205644 19 331 1.6 4.8 0.00 0.00 0.00 55 1019.6
20260503205140 19 65 3.2 11.3 0.00 0.00 0.00 55 1019.6
20260503204637 19 243 3.2 4.8 0.00 0.00 0.00 55 1019.8
20260503204135 20 86 1.6 9.7 0.00 0.00 0.00 54 1019.8
20260503203632 20 265 1.6 4.8 0.00 0.00 0.00 55 1019.7
20260503203129 19 308 3.2 4.8 0.00 0.00 0.00 55 1020.0
20260503202626 20 212 3.2 6.4 0.00 0.00 0.00 53 1019.9
20260503202124 19 56 1.6 9.7 0.00 0.00 0.00 54 1019.9
20260503201622 19 160 0.0 6.4 0.00 0.00 0.00 54 1019.9
20260503201119 19 270 0.0 4.8 0.00 0.00 0.00 56 1020.0
20260503200615 19 203 0.0 6.4 0.00 0.00 0.00 56 1020.0
20260503200112 19 122 3.2 9.7 0.00 0.00 0.00 54 1020.0
20260503195609 19 83 4.8 9.7 0.00 0.00 0.00 53 1020.0
20260503195106 19 219 0.0 6.4 0.00 0.00 0.00 55 1020.2
20260503194603 20 49 1.6 4.8 0.00 0.00 0.00 53 1020.2
20260503194058 20 282 1.6 3.2 0.00 0.00 0.00 53 1020.2
20260503193555 20 279 4.8 6.4 0.00 0.00 0.00 55 1020.4
20260503193050 18 288 0.0 14.5 0.00 0.00 0.00 56 1020.5
20260503192547 19 289 3.2 4.8 0.00 0.00 0.00 53 1020.4
20260503192042 18 276 3.2 6.4 0.00 0.00 0.00 56 1020.7
20260503191539 19 90 4.8 9.7 0.00 0.00 0.00 52 1020.7
20260503191036 20 127 1.6 4.8 0.00 0.00 0.00 52 1020.9
20260503190533 20 106 1.6 3.2 0.00 0.00 0.00 53 1020.8
20260503190030 20 288 3.2 9.7 0.00 0.00 0.00 54 1021.0
20260503185527 19 104 1.6 4.8 0.00 0.00 0.00 53 1021.0
20260503185026 20 267 0.0 3.2 0.00 0.00 0.00 53 1021.0
20260503184523 20 205 1.6 4.8 0.00 0.00 0.00 50 1021.0
20260503184020 20 294 1.6 4.8 0.00 0.00 0.00 54 1020.9
20260503183516 20 225 4.8 6.4 0.00 0.00 0.00 51 1021.0
20260503183013 20 275 0.0 4.8 0.00 0.00 0.00 51 1021.2
20260503182512 20 318 1.6 3.2 0.00 0.00 0.00 54 1021.3
20260503182009 20 279 3.2 4.8 0.00 0.00 0.00 53 1021.3
20260503181506 20 250 3.2 9.7 0.00 0.00 0.00 52 1021.2
20260503181002 20 296 1.6 3.2 0.00 0.00 0.00 53 1021.3
20260503180500 20 242 0.0 4.8 0.00 0.00 0.00 56 1021.3
20260503175957 18 304 1.6 3.2 0.00 0.00 0.00 55 1021.4
20260503175455 19 255 0.0 6.4 0.00 0.00 0.00 55 1021.4
20260503174950 18 309 3.2 6.4 0.00 0.00 0.00 55 1021.5
20260503174449 19 74 1.6 3.2 0.00 0.00 0.00 54 1021.5
20260503173944 18 311 3.2 4.8 0.00 0.00 0.00 54 1021.4
20260503173440 18 245 1.6 4.8 0.00 0.00 0.00 56 1021.3
20260503172937 18 181 1.6 3.2 0.00 0.00 0.00 55 1021.3
20260503172434 19 276 0.0 1.6 0.00 0.00 0.00 56 1021.4
20260503171930 20 195 0.0 1.6 0.00 0.00 0.00 52 1021.6
20260503171427 20 255 0.0 4.8 0.00 0.00 0.00 53 1021.5
20260503170925 20 293 3.2 4.8 0.00 0.00 0.00 53 1021.5
20260503170421 19 252 1.6 3.2 0.00 0.00 0.00 55 1021.6
20260503150813 18 260 0.0 3.2 0.00 0.00 0.00 54 1022.0
20260503150309 18 257 3.2 6.4 0.00 0.00 0.00 55 1022.0
20260503140234 16 234 3.2 6.4 0.00 0.00 0.00 69 1021.6
20260503131203 13 142 0.0 1.6 0.00 0.00 0.00 88 1021.5
20260503130701 13 271 0.0 1.6 0.00 0.00 0.00 90 1021.6
20260503130158 13 185 0.0 4.8 0.00 0.00 0.00 91 1021.6
20260503120123 11 190 0.0 0.0 0.00 0.00 0.00 99 1021.1
20260503110551 9 195 0.0 0.0 0.00 0.00 0.00 99 1020.3
20260503090438 9 199 0.0 0.0 0.00 0.00 0.00 99 1018.7
20260503081404 10 212 0.0 0.0 0.00 0.00 0.00 99 1018.3
20260503080901 9 211 0.0 0.0 0.00 0.00 0.00 99 1018.2
20260503080358 10 211 0.0 0.0 0.00 0.00 0.00 99 1018.5
20260503072829 10 214 0.0 0.0 0.00 0.00 0.00 99 1018.0
20260503072326 10 217 0.0 0.0 0.00 0.00 0.00 99 1018.0
20260503071822 10 217 0.0 0.0 0.00 0.00 0.00 99 1018.1
20260503071320 10 206 0.0 0.0 0.00 0.00 0.00 99 1018.0
20260503070816 10 217 0.0 0.0 0.00 0.00 0.00 99 1018.0
20260503070314 10 225 0.0 0.0 0.00 0.00 0.00 99 1017.9
20260503060232 11 149 0.0 0.0 0.00 0.00 0.00 99 1017.9
20260503054719 11 175 0.0 0.0 0.00 0.00 0.00 99 1017.7
20260503054216 11 209 0.0 0.0 0.00 0.00 0.00 99 1017.8
20260503053714 11 219 0.0 0.0 0.00 0.00 0.00 99 1017.9
20260503053213 11 212 0.0 0.0 0.00 0.00 0.00 99 1017.9
20260503052708 11 213 0.0 0.0 0.00 0.00 0.00 99 1017.7
20260503052205 11 161 0.0 1.6 0.00 0.00 0.00 99 1017.8
20260503051700 11 183 0.0 1.6 0.00 0.00 0.00 99 1017.6
20260503051159 11 242 1.6 4.8 0.00 0.00 0.00 99 1017.5
20260503050655 11 168 0.0 1.6 0.00 0.00 0.00 99 1017.6
20260503050151 11 248 0.0 1.6 0.00 0.00 0.00 99 1017.5
20260503045649 11 201 0.0 0.0 0.00 0.00 0.00 99 1017.5
20260503045146 11 160 0.0 1.6 0.00 0.00 0.00 99 1017.5
20260503044642 11 145 0.0 0.0 0.00 0.00 0.00 99 1017.4
20260503044140 11 153 1.6 4.8 0.00 0.00 0.00 99 1017.2
20260503043637 11 144 0.0 3.2 0.00 0.00 0.00 99 1017.2
20260503043134 11 174 0.0 4.8 0.00 0.00 0.00 99 1017.0
20260503042630 11 194 0.0 3.2 0.00 0.00 0.00 99 1017.2
20260503042126 11 243 0.0 3.2 0.00 0.00 0.00 99 1017.2
20260503041623 11 264 1.6 1.6 0.00 0.00 0.00 99 1017.2
20260503041121 12 150 3.2 4.8 0.00 0.00 0.00 99 1017.2
20260503040618 12 148 0.0 1.6 0.00 0.00 0.00 99 1017.0
20260503040115 12 169 3.2 4.8 0.00 0.00 0.00 99 1016.8
20260503035612 12 189 0.0 4.8 0.00 3.63 3.63 99 1016.8
20260503035109 12 250 0.0 1.6 0.00 3.63 3.63 99 1016.9
20260503034607 12 242 0.0 0.0 0.00 3.63 3.63 99 1016.8
20260503034104 12 249 0.0 1.6 0.00 3.63 3.63 99 1016.8
20260503033600 12 200 0.0 0.0 0.00 3.63 3.63 99 1016.6
20260503033059 12 279 1.6 1.6 0.00 3.63 3.63 99 1016.5
20260503032557 12 143 0.0 1.6 0.00 3.63 3.63 99 1016.3
20260503032054 12 163 0.0 3.2 0.00 3.63 3.63 99 1016.4
20260503031552 12 253 0.0 3.2 0.00 3.63 3.63 99 1016.5
20260503031049 12 202 0.0 0.0 0.00 3.63 3.63 99 1016.4
20260503030545 12 178 0.0 0.0 0.00 3.63 3.63 99 1016.3
20260503030042 12 184 0.0 0.0 0.00 3.63 3.63 99 1016.1
20260503025539 12 163 0.0 1.6 0.00 3.63 3.63 99 1016.0
20260503025037 12 224 0.0 0.0 0.00 3.63 3.63 99 1015.9
20260503024532 12 163 3.2 3.2 0.00 3.63 3.63 99 1016.0
20260503024030 12 212 0.0 3.2 0.00 3.63 3.63 99 1016.0
20260503023526 12 160 0.0 3.2 0.00 3.63 3.63 99 1015.9
20260503023024 12 175 0.0 1.6 0.00 3.63 3.63 99 1015.7
20260503022520 12 168 0.0 0.0 0.00 3.63 3.63 99 1015.6
20260503022015 12 183 0.0 0.0 0.00 3.63 3.63 99 1015.5
20260503021512 12 262 0.0 1.6 0.00 3.63 3.63 99 1015.4
20260503021009 12 178 0.0 0.0 0.00 3.63 3.63 99 1015.3
20260503020506 12 176 0.0 3.2 0.00 3.63 3.63 99 1015.4
20260503020002 12 271 0.0 1.6 0.00 3.63 3.63 99 1015.4
20260503015459 12 213 0.0 0.0 0.00 3.63 3.63 99 1015.3
20260503014956 12 181 0.0 0.0 0.00 3.63 3.63 99 1015.0
20260503014453 12 266 1.6 4.8 0.00 3.63 3.63 99 1015.0
20260503013951 12 229 1.6 3.2 0.00 3.63 3.63 99 1015.2
20260503013448 12 291 0.0 1.6 0.00 3.63 3.63 99 1014.8
20260503012945 12 271 0.0 1.6 0.00 3.63 3.63 99 1015.1
20260503012443 12 222 3.2 4.8 0.00 3.63 3.63 99 1015.0
20260503011938 12 254 1.6 4.8 0.00 3.63 3.63 99 1015.2
20260503011435 12 152 3.2 4.8 0.00 3.63 3.63 99 1015.2
20260503010933 12 258 1.6 1.6 0.00 3.63 3.63 99 1015.1
20260503010429 12 186 1.6 3.2 0.00 3.63 3.63 99 1014.9
20260503005927 12 191 0.0 3.2 0.00 3.63 3.63 99 1014.9
20260503005424 12 199 0.0 6.4 0.00 3.63 3.63 99 1014.9
20260503004921 12 170 0.0 6.4 0.00 3.63 3.63 99 1014.9
20260503004418 12 162 0.0 3.2 0.00 3.63 3.63 99 1014.7
20260503003915 12 101 1.6 3.2 0.00 3.63 3.63 99 1014.4
20260503003411 12 232 1.6 3.2 0.00 3.63 3.63 99 1014.3
20260503002909 12 146 0.0 3.2 0.00 3.63 3.63 99 1014.3
20260503002406 12 237 1.6 1.6 0.00 3.63 3.63 99 1014.3
20260503001902 12 183 0.0 0.0 0.00 3.63 3.63 99 1014.2
20260503001358 12 250 1.6 1.6 0.00 3.63 3.63 99 1014.1
20260503000856 12 168 0.0 3.2 0.00 3.63 3.63 99 1014.3
20260503000353 12 157 0.0 0.0 0.00 3.63 3.63 99 1014.4
20260502235850 13 318 0.0 4.8 0.00 3.63 3.63 99 1014.1
20260502235347 13 201 0.0 1.6 0.00 3.63 3.63 99 1014.0
20260502234844 13 137 1.6 3.2 0.00 3.63 3.63 99 1014.1
20260502234341 13 191 0.0 0.0 0.00 3.63 3.63 99 1014.0
20260502233838 13 145 0.0 1.6 0.13 3.63 3.63 99 1013.9
20260502233334 13 137 3.2 3.2 0.13 3.63 3.63 99 1013.8
20260502232831 13 156 0.0 4.8 0.00 3.61 3.61 99 1013.6
20260502232327 13 161 0.0 1.6 0.00 3.61 3.61 99 1013.4
20260502231824 13 218 0.0 1.6 0.00 3.61 3.61 99 1013.4
20260502231322 13 170 0.0 3.2 0.00 3.61 3.61 99 1013.3
20260502230820 13 149 0.0 4.8 0.00 3.61 3.61 99 1013.3
20260502230318 13 197 1.6 3.2 0.00 3.61 3.61 99 1013.3
20260502225814 13 170 0.0 1.6 0.00 3.61 3.61 99 1013.2
20260502225311 13 171 0.0 4.8 0.00 3.61 3.61 99 1013.3
20260502224807 13 152 3.2 6.4 0.00 3.61 3.61 99 1013.2
20260502224304 13 173 0.0 3.2 0.00 3.61 3.61 99 1013.2
20260502223801 13 198 1.6 12.9 0.00 3.61 3.61 99 1013.5
20260502223300 13 197 0.0 1.6 0.00 3.61 3.61 99 1013.3
20260502222757 13 209 0.0 1.6 0.00 3.61 3.61 99 1013.2
20260502222254 13 161 3.2 4.8 0.00 3.61 3.61 99 1013.3
20260502221749 13 174 0.0 4.8 0.00 3.61 3.61 99 1013.0
20260502221246 13 176 1.6 3.2 0.00 3.61 3.61 99 1013.0
20260502220743 13 202 3.2 6.4 0.00 3.61 3.61 99 1013.2
20260502220238 13 178 0.0 3.2 0.00 3.61 3.61 99 1013.0
20260502215736 13 213 3.2 4.8 0.00 3.61 3.61 99 1013.0